This is the latest recevied weather packets stored in our database for station/object SV8FES. If no packets are shown the sender has not sent any weather packets the latest 1 day(s).
| Time | Temp. | Humidity | Pressure | Rain* | Wind** | Luminosity | Snow |
|---|---|---|---|---|---|---|---|
| 1778080265 | 22.78° C | 47% | 1016.1 hPa | 0 mm | - | 350 W/m² | - |
| 1778080204 | 22.78° C | 47% | 1016.1 hPa | 0 mm | - | 350 W/m² | - |
| 1778080022 | 22.78° C | 47% | 1016.1 hPa | 0 mm | - | 353 W/m² | - |
| 1778079903 | 22.78° C | 47% | 1016 hPa | 0 mm | - | 364 W/m² | - |
| 1778079536 | 22.78° C | 46% | 1016.1 hPa | 0 mm | - | 387 W/m² | - |
| 1778079421 | 22.78° C | 46% | 1016.1 hPa | 0 mm | - | 392 W/m² | - |
| 1778078984 | 22.78° C | 49% | 1016.1 hPa | 0 mm | - | 411 W/m² | - |
| 1778078857 | 22.78° C | 50% | 1016 hPa | 0 mm | - | 420 W/m² | - |
| 1778078795 | 22.78° C | 50% | 1016.1 hPa | 0 mm | - | 422 W/m² | - |
| 1778078676 | 22.78° C | 49% | 1016.1 hPa | 0 mm | - | 431 W/m² | - |
| 1778078494 | 22.78° C | 46% | 1016.1 hPa | 0 mm | - | 436 W/m² | - |
| 1778078374 | 22.78° C | 47% | 1016.2 hPa | 0 mm | - | 445 W/m² | - |
| 1778078314 | 22.78° C | 47% | 1016.2 hPa | 0 mm | - | 454 W/m² | - |
| 1778078133 | 23.33° C | 47% | 1016.2 hPa | 0 mm | - | 459 W/m² | - |
| 1778078012 | 23.33° C | 47% | 1016.3 hPa | 0 mm | - | 466 W/m² | - |
| 1778077953 | 22.78° C | 49% | 1016.2 hPa | 0 mm | - | 469 W/m² | - |
| 1778077833 | 23.33° C | 48% | 1016.2 hPa | 0 mm | - | 475 W/m² | - |
| 1778077653 | 23.33° C | 48% | 1016.2 hPa | 0 mm | - | 485 W/m² | - |
| 1778077593 | 23.33° C | 48% | 1016.3 hPa | 0 mm | - | 487 W/m² | - |
| 1778077408 | 23.33° C | 48% | 1016.3 hPa | 0 mm | - | 496 W/m² | - |
| 1778077162 | 23.33° C | 46% | 1016.4 hPa | 0 mm | - | 510 W/m² | - |
| 1778076735 | 23.33° C | 46% | 1016.3 hPa | 0 mm | - | 531 W/m² | - |
| 1778076675 | 23.33° C | 46% | 1016.4 hPa | 0 mm | - | 538 W/m² | - |
| 1778076490 | 23.33° C | 48% | 1016.4 hPa | 0 mm | - | 547 W/m² | - |
| 1778076189 | 23.33° C | 45% | 1016.4 hPa | 0 mm | - | 566 W/m² | - |
* Rain latest hour (hover to see other rain measurements)
** Current wind speed in m/s (hover to see current wind gust speed)